"startDT [UTC]","vpos","CH4 [ppm]","stdev(CH4) [ppm]","CO2 [ppm]","stdev(CO2) [ppm]","H2O [ppm]","stdev(H2O)","p_LGR [torr]","T_LGR [C]","mt1_LGR [us]","mt2_LGR [us]","T_ECpre [C]","T_EC1 [C]","T_EC2 [C]","p_inlet [hPa]","p_in [hPa]","p_out [hPa]","T_inlet [C]","RH_inlet [%]","dwpt_inlet [C]","T_vent [C]","RH_vent [%]","dwpt_vent [C]","flow_vent [l min-1]","flow_inlet [l min-1]","dwpt_sample [C]","T_room [C]"
2012-06-21 00:00:00,0.0,1.8777,0.0010,399.11,0.28,0.8,5.7,138.08,30.06,24.64,36.43,0.87,-26.72,1.22,-52,528,-927,20.8,22.9,-1.2,21.3,2.0,-29.8,5.73,2.35,-29.0,27.9
2012-06-21 00:01:00,0.0,1.8776,0.0009,398.98,0.28,-0.3,3.5,138.08,30.06,24.64,36.43,0.87,-26.70,1.98,-52,528,-927,20.8,23.2,-1.0,21.2,2.0,-29.8,5.73,2.37,-29.0,27.9
2012-06-21 00:02:00,0.0,1.8775,0.0010,399.00,0.29,0.7,6.5,138.08,30.06,24.64,36.42,0.88,-26.68,2.66,-52,528,-928,20.8,23.2,-1.0,21.2,2.0,-29.8,5.73,2.38,-29.0,27.9
2012-06-21 00:03:00,0.0,1.8777,0.0010,398.96,0.29,2.8,12.2,138.08,30.06,24.64,36.43,0.90,-26.66,3.11,-52,528,-928,20.8,23.1,-1.0,21.2,2.0,-29.9,5.73,2.36,-29.0,27.9
2012-06-21 00:04:00,0.0,1.8779,0.0008,399.12,0.30,0.8,6.2,138.08,30.06,24.64,36.42,0.93,-26.65,3.33,-52,528,-928,20.8,22.9,-1.2,21.2,2.0,-30.0,5.73,2.35,-29.0,27.9
2012-06-21 00:05:00,0.0,1.8776,0.0010,398.94,0.27,0.9,5.7,138.08,30.06,24.64,36.43,0.95,-26.63,3.63,-52,528,-928,20.8,23.1,-1.0,21.2,2.0,-30.0,5.73,2.37,-29.0,27.9
2012-06-21 00:06:00,0.0,1.8779,0.0009,398.95,0.33,0.1,5.8,138.08,30.06,24.64,36.42,0.96,-26.62,4.12,-52,528,-928,20.8,23.3,-0.9,21.2,2.0,-30.0,5.73,2.38,-29.0,27.9
2012-06-21 00:07:00,0.0,1.8778,0.0008,398.93,0.38,1.6,6.7,138.08,30.06,24.64,36.43,0.92,-26.60,4.72,-52,528,-928,20.8,23.5,-0.8,21.2,2.0,-30.1,5.73,2.37,-29.0,27.9
2012-06-21 00:08:00,0.0,1.8774,0.0010,398.85,0.28,2.6,12.9,138.08,30.05,24.64,36.43,0.86,-26.58,5.28,-52,528,-928,20.8,23.4,-0.9,21.2,2.0,-30.1,5.73,2.36,-29.0,27.9
2012-06-21 00:09:00,0.0,1.8778,0.0008,399.11,0.29,2.2,8.2,138.08,30.05,24.64,36.43,0.88,-26.57,5.82,-52,528,-928,20.8,23.0,-1.1,21.2,2.0,-30.1,5.73,2.36,-29.0,27.9
2012-06-21 00:10:00,0.0,1.8777,0.0011,398.78,0.27,2.4,8.2,138.08,30.05,24.64,36.43,0.87,-26.55,6.33,-52,528,-928,20.8,23.3,-0.9,21.2,2.0,-30.1,5.73,2.38,-29.0,27.9
2012-06-21 00:11:00,0.0,1.8780,0.0009,398.92,0.30,3.3,12.9,138.08,30.05,24.64,36.43,0.92,-26.54,6.83,-52,528,-928,20.8,23.3,-0.9,21.2,2.0,-30.1,5.73,2.38,-29.0,27.9
2012-06-21 00:12:00,0.0,1.8781,0.0009,398.78,0.29,0.5,5.6,138.08,30.05,24.64,36.43,0.92,-26.53,7.30,-52,528,-928,20.8,23.2,-1.0,21.2,2.0,-30.1,5.73,2.36,-29.0,27.9
2012-06-21 00:13:00,0.0,1.8779,0.0010,399.05,0.29,4.8,12.7,138.08,30.05,24.64,36.42,0.94,-26.52,7.75,-52,528,-928,20.8,23.0,-1.1,21.2,2.0,-30.1,5.73,2.35,-29.0,27.9
2012-06-21 00:14:00,0.0,1.8777,0.0009,398.93,0.33,2.2,9.3,138.08,30.05,24.64,36.42,0.95,-26.50,8.18,-52,528,-927,20.8,23.4,-0.9,21.2,2.0,-30.2,5.73,2.37,-29.0,27.9
2012-06-21 00:15:00,0.0,1.8780,0.0008,398.63,0.36,-0.4,2.2,138.08,30.05,24.64,36.43,0.92,-26.49,8.59,-52,528,-927,20.8,23.9,-0.6,21.2,2.0,-30.3,5.73,2.38,-29.0,27.9
2012-06-21 00:16:00,0.0,1.8787,0.0011,398.71,0.28,1.4,6.2,138.08,30.05,24.64,36.43,0.88,-26.48,8.99,-52,528,-927,20.8,24.2,-0.4,21.2,2.0,-30.2,5.73,2.36,-29.0,27.9
2012-06-21 00:17:00,0.0,1.8786,0.0012,398.73,0.28,1.2,7.9,138.08,30.04,24.64,36.43,0.89,-26.46,9.37,-52,528,-927,20.8,24.0,-0.5,21.2,2.0,-30.3,5.73,2.35,-29.0,27.9
2012-06-21 00:18:00,0.0,1.8794,0.0010,398.70,0.30,0.7,6.3,138.08,30.04,24.64,36.42,0.86,-26.45,9.75,-52,528,-928,20.8,24.6,-0.2,21.2,2.0,-30.2,5.73,2.37,-29.0,27.9
2012-06-21 00:19:00,0.0,1.8794,0.0010,398.79,0.27,1.7,7.4,138.08,30.04,24.64,36.42,0.88,-26.44,10.11,-52,528,-928,20.7,24.6,-0.2,21.2,2.0,-30.1,5.73,2.38,-29.0,27.9
2012-06-21 00:20:00,0.0,1.8797,0.0010,398.95,0.25,1.9,7.3,138.08,30.04,24.64,36.42,0.93,-26.43,10.44,-52,528,-928,20.8,24.1,-0.5,21.2,2.0,-30.1,5.73,2.37,-29.0,27.9
2012-06-21 00:21:00,0.0,1.8796,0.0008,398.74,0.35,0.4,4.0,138.08,30.04,24.64,36.43,0.95,-26.42,10.78,-52,528,-928,20.7,24.3,-0.4,21.2,2.0,-30.1,5.73,2.35,-29.0,27.9
2012-06-21 00:22:00,0.0,1.8795,0.0010,398.82,0.34,4.8,13.0,138.08,30.03,24.64,36.43,0.94,-26.41,11.11,-52,528,-928,20.7,24.0,-0.6,21.2,2.0,-30.1,5.73,2.36,-29.0,27.9
2012-06-21 00:23:00,0.0,1.8792,0.0009,398.84,0.30,1.9,10.2,138.08,30.03,24.64,36.43,0.96,-26.40,11.44,-52,528,-928,20.7,23.7,-0.7,21.2,2.0,-30.2,5.73,2.38,-29.0,27.9
2012-06-21 00:24:00,0.0,1.8793,0.0008,398.84,0.31,3.3,8.2,138.08,30.03,24.64,36.43,0.93,-26.39,11.75,-52,528,-928,20.7,24.0,-0.6,21.2,2.0,-30.2,5.73,2.37,-28.9,27.9
2012-06-21 00:25:00,0.0,1.8794,0.0009,398.66,0.27,1.2,6.7,138.08,30.03,24.64,36.43,0.93,-26.39,12.05,-52,528,-928,20.8,24.3,-0.4,21.2,2.0,-30.2,5.73,2.35,-28.9,27.9
2012-06-21 00:26:00,0.0,1.8792,0.0010,398.68,0.33,2.3,7.5,138.08,30.03,24.64,36.43,0.87,-26.38,12.34,-52,528,-928,20.7,24.3,-0.4,21.2,2.0,-30.1,5.73,2.35,-29.0,27.9
2012-06-21 00:27:00,0.0,1.8791,0.0009,398.63,0.28,0.9,7.0,138.08,30.02,24.64,36.43,0.87,-26.38,12.62,-52,528,-928,20.7,24.5,-0.3,21.2,2.0,-30.1,5.73,2.38,-28.9,27.9
2012-06-21 00:28:00,0.0,1.8793,0.0009,398.51,0.30,1.7,7.4,138.08,30.02,24.64,36.43,0.90,-26.36,12.88,-52,528,-928,20.7,24.6,-0.2,21.2,2.0,-30.1,5.73,2.38,-28.9,27.9
2012-06-21 00:29:00,0.0,1.8794,0.0010,398.43,0.30,4.4,12.0,138.08,30.02,24.64,36.42,0.92,-26.36,13.13,-52,528,-928,20.7,24.8,-0.1,21.2,2.0,-30.1,5.73,2.36,-28.9,27.9
2012-06-21 00:30:00,0.0,1.8795,0.0010,398.75,0.32,1.9,9.2,138.08,30.02,24.64,36.42,0.92,-26.35,13.38,-52,528,-928,20.7,23.8,-0.7,21.2,2.0,-30.1,5.73,2.35,-28.9,27.9
2012-06-21 00:31:00,0.0,1.8794,0.0011,398.92,0.31,2.0,8.1,138.08,30.02,24.64,36.42,0.93,-26.34,13.61,-52,528,-927,20.7,23.4,-0.9,21.2,2.0,-30.1,5.73,2.36,-28.9,27.9
2012-06-21 00:32:00,0.0,1.8788,0.0009,398.78,0.28,4.1,10.9,138.08,30.02,24.64,36.43,0.94,-26.34,13.84,-52,528,-927,20.7,23.6,-0.8,21.2,2.0,-30.1,5.73,2.38,-28.9,27.9
2012-06-21 00:33:00,0.0,1.8786,0.0012,398.87,0.30,4.2,11.2,138.08,30.02,24.64,36.43,0.95,-26.33,14.05,-52,528,-927,20.7,23.9,-0.6,21.2,2.0,-30.1,5.73,2.37,-28.9,27.9
2012-06-21 00:34:00,0.0,1.8783,0.0009,398.72,0.27,4.2,12.8,138.08,30.02,24.64,36.43,0.94,-26.33,14.25,-52,528,-927,20.7,24.3,-0.4,21.2,2.0,-30.1,5.73,2.35,-28.9,27.9
2012-06-21 00:35:00,0.0,1.8784,0.0009,398.60,0.34,3.1,10.1,138.08,30.02,24.64,36.43,0.92,-26.33,14.46,-52,528,-927,20.7,24.4,-0.4,21.2,2.0,-30.1,5.73,2.36,-28.9,27.9
2012-06-21 00:36:00,0.0,1.8780,0.0010,398.69,0.27,4.8,13.0,138.08,30.02,24.64,36.44,0.90,-26.32,14.64,-52,528,-927,20.7,24.2,-0.5,21.2,2.0,-30.1,5.73,2.38,-28.9,27.9
2012-06-21 00:37:00,0.0,1.8782,0.0008,398.68,0.32,2.6,9.3,138.08,30.02,24.64,36.43,0.87,-26.31,14.82,-52,528,-927,20.7,24.0,-0.6,21.2,2.0,-30.1,5.73,2.38,-28.9,27.9
2012-06-21 00:38:00,0.0,1.8783,0.0009,398.78,0.28,4.3,11.5,138.08,30.02,24.64,36.43,0.87,-26.30,14.99,-52,528,-927,20.8,23.7,-0.7,21.2,2.0,-30.1,5.73,2.35,-28.9,27.9
2012-06-21 00:39:00,0.0,1.8783,0.0010,398.71,0.28,3.1,10.1,138.08,30.01,24.64,36.43,0.90,-26.30,15.16,-52,528,-928,20.7,24.1,-0.5,21.2,2.0,-30.1,5.73,2.35,-28.9,27.9
2012-06-21 00:40:00,0.0,1.8782,0.0009,398.83,0.24,2.4,10.1,138.08,30.01,24.64,36.42,0.90,-26.30,15.31,-52,528,-928,20.7,23.7,-0.8,21.2,2.0,-30.1,5.73,2.37,-28.9,27.9
2012-06-21 00:41:00,0.0,1.8776,0.0008,398.71,0.28,2.0,9.2,138.08,30.01,24.64,36.43,0.92,-26.29,15.46,-52,528,-928,20.7,23.4,-0.9,21.2,2.0,-30.1,5.73,2.39,-28.9,27.9
2012-06-21 00:42:00,0.0,1.8777,0.0010,398.93,0.30,1.7,6.5,138.08,30.01,24.64,36.43,0.93,-26.29,15.61,-52,528,-928,20.8,23.1,-1.1,21.2,2.0,-30.1,5.73,2.36,-28.9,27.9
2012-06-21 00:43:00,0.0,1.8777,0.0007,398.96,0.27,4.3,11.6,138.08,30.01,24.64,36.42,0.93,-26.28,15.75,-52,528,-928,20.8,23.1,-1.1,21.2,2.0,-30.1,5.73,2.35,-28.9,27.9
2012-06-21 00:44:00,0.0,1.8774,0.0009,398.85,0.31,3.1,9.4,138.08,30.00,24.64,36.43,0.94,-26.28,15.88,-52,528,-928,20.8,23.1,-1.1,21.2,2.0,-30.1,5.73,2.36,-28.9,27.9
2012-06-21 00:45:00,0.0,1.8771,0.0009,398.76,0.34,4.1,12.9,138.08,30.00,24.64,36.43,0.94,-26.27,16.01,-52,528,-928,20.8,23.2,-1.0,21.2,2.0,-30.1,5.73,2.38,-28.9,27.9
2012-06-21 00:46:00,0.0,1.8771,0.0008,398.82,0.26,1.9,8.4,138.08,30.00,24.64,36.43,0.93,-26.28,16.13,-52,528,-928,20.8,23.2,-1.0,21.2,2.0,-30.2,5.73,2.38,-28.9,27.9
2012-06-21 00:47:00,0.0,1.8774,0.0007,398.78,0.27,4.6,11.3,138.08,30.00,24.64,36.42,0.90,-26.27,16.24,-52,528,-928,20.8,23.6,-0.8,21.2,2.0,-30.2,5.73,2.35,-28.8,27.9
2012-06-21 00:48:00,0.0,1.8774,0.0009,398.55,0.26,4.4,14.3,138.08,29.99,24.64,36.42,0.88,-26.26,16.35,-52,528,-928,20.8,24.1,-0.5,21.2,2.0,-30.2,5.73,2.35,-28.9,27.9
2012-06-21 00:49:00,0.0,1.8787,0.0008,398.64,0.32,3.1,11.5,138.08,29.99,24.64,36.43,0.88,-26.27,16.45,-52,528,-927,20.8,24.4,-0.3,21.2,2.0,-30.2,5.73,2.38,-28.8,27.9
2012-06-21 00:50:00,0.0,1.8788,0.0009,398.77,0.30,4.9,11.4,138.08,29.99,24.64,36.43,0.89,-26.26,16.55,-52,528,-927,20.8,24.5,-0.3,21.2,2.0,-30.2,5.73,2.38,-28.9,27.9
2012-06-21 00:51:00,0.0,1.8792,0.0008,398.76,0.30,4.2,12.1,138.08,30.00,24.64,36.43,0.89,-26.26,16.65,-52,528,-928,20.8,24.4,-0.3,21.2,2.0,-30.1,5.73,2.36,-28.8,27.9
2012-06-21 00:52:00,0.0,1.8799,0.0010,398.81,0.26,3.9,11.0,138.08,29.99,24.64,36.42,0.92,-26.25,16.74,-52,528,-928,20.8,25.0,0.0,21.2,2.0,-30.1,5.73,2.35,-28.8,27.9
2012-06-21 00:53:00,0.0,1.8797,0.0008,398.60,0.28,6.6,14.4,138.08,29.99,24.64,36.43,0.92,-26.25,16.83,-52,528,-928,20.8,25.3,0.2,21.2,2.0,-30.1,5.73,2.37,-28.8,27.9
2012-06-21 00:54:00,0.0,1.8796,0.0010,398.57,0.32,3.2,10.9,138.08,29.99,24.64,36.43,0.93,-26.24,16.92,-52,528,-928,20.8,25.1,0.1,21.2,2.0,-30.1,5.73,2.38,-28.8,27.9
2012-06-21 00:55:00,0.0,1.8793,0.0009,398.71,0.30,8.6,17.9,138.08,29.99,24.64,36.43,0.94,-26.24,17.00,-52,528,-928,20.8,24.7,-0.1,21.2,2.0,-30.1,5.73,2.36,-28.8,27.9
2012-06-21 00:56:00,0.0,1.8794,0.0009,398.97,0.32,4.0,11.7,138.08,29.99,24.64,36.42,0.95,-26.24,17.07,-52,528,-928,20.8,25.1,0.1,21.2,2.0,-30.2,5.73,2.35,-28.8,27.9
2012-06-21 00:57:00,0.0,1.8797,0.0010,398.97,0.29,3.7,10.5,138.08,29.99,24.64,36.43,0.94,-26.24,17.15,-52,528,-928,20.8,25.3,0.2,21.2,2.0,-30.1,5.73,2.37,-28.8,27.9
2012-06-21 00:58:00,0.0,1.8793,0.0009,399.04,0.31,4.3,11.3,138.08,29.99,24.64,36.42,0.93,-26.23,17.22,-52,528,-928,20.8,24.8,-0.1,21.2,2.0,-30.2,5.73,2.38,-28.8,27.9
2012-06-21 00:59:00,0.0,1.8794,0.0009,399.02,0.28,6.8,16.5,138.08,29.99,24.64,36.43,0.90,-26.23,17.29,-52,528,-928,20.8,24.9,-0.0,21.2,2.0,-30.2,5.73,2.37,-28.8,27.9
2012-06-21 01:00:00,0.0,1.8797,0.0008,398.92,0.34,8.9,16.2,138.08,29.99,24.64,36.43,0.89,-26.23,17.35,-52,528,-928,20.8,25.3,0.2,21.2,2.0,-30.2,5.73,2.35,-28.8,27.9
2012-06-21 01:01:00,0.0,1.8797,0.0008,399.07,0.28,4.2,11.1,138.08,29.99,24.64,36.42,0.88,-26.22,17.42,-52,528,-928,20.8,25.1,0.1,21.3,2.0,-30.2,5.73,2.36,-28.8,27.9
2012-06-21 01:02:00,0.0,1.8797,0.0009,398.86,0.27,4.6,12.3,138.08,29.98,24.64,36.43,0.88,-26.22,17.48,-52,528,-928,20.8,25.4,0.3,21.3,2.0,-30.2,5.73,2.38,-28.8,27.9
2012-06-21 01:03:00,0.0,1.8793,0.0008,398.86,0.29,7.8,17.0,138.08,29.98,24.64,36.43,0.91,-26.22,17.53,-52,528,-928,20.8,25.4,0.2,21.3,2.0,-30.3,5.73,2.37,-28.8,28.0
2012-06-21 01:04:00,0.0,1.8793,0.0010,398.74,0.27,3.5,11.3,138.08,29.98,24.64,36.43,0.91,-26.21,17.59,-52,528,-927,20.8,25.6,0.4,21.3,2.0,-30.2,5.73,2.35,-28.8,28.0
2012-06-21 01:05:00,0.0,1.8793,0.0008,398.88,0.29,3.6,10.5,138.08,29.98,24.64,36.42,0.91,-26.21,17.64,-52,528,-928,20.8,25.5,0.3,21.3,2.0,-30.2,5.73,2.36,-28.8,27.9
2012-06-21 01:06:00,0.0,1.8793,0.0009,398.96,0.28,8.6,17.5,138.08,29.98,24.64,36.42,0.92,-26.21,17.69,-52,528,-928,20.8,25.3,0.2,21.3,2.0,-30.2,5.73,2.38,-28.8,28.0
2012-06-21 01:07:00,0.0,1.8790,0.0008,398.92,0.26,5.2,15.4,138.08,29.98,24.64,36.43,0.93,-26.21,17.74,-52,528,-928,20.8,25.3,0.2,21.3,2.0,-30.2,5.73,2.37,-28.8,28.0
2012-06-21 01:08:00,0.0,1.8796,0.0008,398.79,0.31,3.3,10.7,138.08,29.97,24.64,36.43,0.94,-26.20,17.79,-52,528,-928,20.8,25.7,0.5,21.3,2.0,-30.2,5.73,2.35,-28.8,28.0
2012-06-21 01:09:00,0.0,1.8795,0.0009,398.83,0.26,5.5,13.9,138.08,29.97,24.64,36.43,0.94,-26.20,17.83,-52,528,-928,20.8,26.0,0.6,21.3,2.0,-30.2,5.73,2.36,-28.8,27.9
2012-06-21 01:10:00,0.0,1.8792,0.0010,398.83,0.27,2.4,9.1,138.08,29.97,24.64,36.43,0.93,-26.20,17.87,-52,528,-928,20.8,26.2,0.7,21.3,2.0,-30.2,5.73,2.38,-28.8,28.0
2012-06-21 01:11:00,0.0,1.8795,0.0009,399.03,0.29,7.8,20.9,138.08,29.97,24.64,36.42,0.91,-26.19,17.91,-52,528,-928,20.8,25.9,0.6,21.3,2.0,-30.2,5.73,2.38,-28.8,28.0
2012-06-21 01:12:00,0.0,1.8792,0.0008,398.96,0.26,5.1,12.2,138.08,29.97,24.64,36.43,0.88,-26.19,17.95,-52,528,-928,20.9,25.7,0.5,21.3,2.0,-30.2,5.73,2.35,-28.8,28.0
2012-06-21 01:13:00,0.0,1.8794,0.0009,399.04,0.26,5.2,11.0,138.08,29.97,24.64,36.42,0.89,-26.19,17.99,-52,528,-928,20.9,25.8,0.5,21.3,2.0,-30.2,5.73,2.36,-28.8,28.0
2012-06-21 01:14:00,0.0,1.8793,0.0010,398.78,0.30,7.4,12.4,138.08,29.97,24.64,36.43,0.91,-26.19,18.02,-52,528,-928,20.8,26.3,0.8,21.3,2.0,-30.2,5.73,2.38,-28.8,28.0
2012-06-21 01:15:00,0.0,1.8794,0.0009,398.91,0.28,3.2,10.9,138.08,29.97,24.64,36.43,0.89,-26.18,18.06,-52,528,-928,20.8,26.1,0.6,21.3,2.0,-30.2,5.73,2.38,-28.8,28.0
2012-06-21 01:16:00,0.0,1.8800,0.0009,398.86,0.35,3.4,10.4,138.08,29.97,24.63,36.42,0.91,-26.18,18.09,-52,528,-928,20.8,26.2,0.7,21.3,2.0,-30.2,5.73,2.35,-28.8,28.0
2012-06-21 01:17:00,0.0,1.8793,0.0009,398.87,0.34,6.4,17.1,138.08,29.97,24.64,36.43,0.91,-26.18,18.12,-52,528,-928,20.8,26.1,0.7,21.3,2.0,-30.2,5.73,2.35,-28.8,28.0
2012-06-21 01:18:00,0.0,1.8792,0.0008,398.91,0.31,6.2,15.1,138.08,29.97,24.64,36.43,0.93,-26.18,18.15,-52,528,-928,20.9,25.7,0.5,21.3,2.0,-30.2,5.73,2.38,-28.8,28.0
2012-06-21 01:19:00,0.0,1.8793,0.0012,398.91,0.26,8.0,15.9,138.08,29.97,24.64,36.43,0.93,-26.18,18.18,-52,528,-928,20.9,26.1,0.7,21.3,2.0,-30.2,5.73,2.38,-28.8,28.0
2012-06-21 01:20:00,0.0,1.8789,0.0010,399.00,0.28,5.8,13.0,138.08,29.97,24.64,36.43,0.94,-26.18,18.20,-52,528,-928,20.8,25.5,0.4,21.3,2.0,-30.2,5.73,2.35,-28.8,28.0
2012-06-21 01:21:00,0.0,1.8783,0.0010,399.02,0.28,4.7,12.7,138.08,29.97,24.64,36.43,0.95,-26.18,18.23,-52,529,-928,20.8,25.1,0.1,21.3,2.0,-30.2,5.73,2.35,-28.8,28.0
2012-06-21 01:22:00,0.0,1.8793,0.0009,398.98,0.27,4.8,11.7,138.08,29.96,24.64,36.43,0.95,-26.18,18.26,-52,529,-928,20.9,25.3,0.3,21.3,2.0,-30.2,5.73,2.37,-28.8,28.0
2012-06-21 01:23:00,0.0,1.8796,0.0009,398.90,0.32,4.8,12.7,138.08,29.96,24.64,36.43,0.94,-26.18,18.28,-52,528,-928,20.8,25.8,0.5,21.3,2.0,-30.2,5.73,2.38,-28.8,28.0
2012-06-21 01:24:00,0.0,1.8793,0.0009,398.75,0.28,5.9,16.1,138.08,29.96,24.64,36.43,0.93,-26.18,18.30,-52,529,-928,20.8,26.3,0.8,21.3,2.0,-30.2,5.73,2.36,-28.8,28.0
2012-06-21 01:25:00,0.0,1.8796,0.0009,399.11,0.26,7.5,16.4,138.08,29.96,24.64,36.42,0.89,-26.18,18.32,-52,529,-928,20.9,26.2,0.8,21.3,2.0,-30.2,5.73,2.35,-28.8,28.0
2012-06-21 01:26:00,0.0,1.8795,0.0008,399.18,0.29,9.4,18.6,138.08,29.96,24.64,36.43,0.88,-26.18,18.34,-52,529,-928,20.9,25.6,0.4,21.3,2.0,-30.2,5.73,2.37,-28.8,28.0
2012-06-21 01:27:00,0.0,1.8792,0.0010,399.11,0.32,3.4,10.5,138.08,29.96,24.64,36.42,0.90,-26.18,18.36,-52,528,-928,20.9,25.6,0.5,21.3,2.0,-30.2,5.73,2.39,-28.8,28.0
2012-06-21 01:28:00,0.0,1.8796,0.0008,398.97,0.26,5.7,11.7,138.08,29.96,24.64,36.43,0.90,-26.18,18.39,-52,528,-929,20.8,26.0,0.6,21.3,2.0,-30.2,5.73,2.37,-28.8,28.0
2012-06-21 01:29:00,0.0,1.8798,0.0009,398.97,0.33,7.4,13.2,138.08,29.96,24.64,36.43,0.91,-26.18,18.40,-52,529,-929,20.9,26.3,0.8,21.3,2.0,-30.2,5.73,2.35,-28.7,28.0
2012-06-21 01:30:00,0.0,1.8793,0.0009,399.02,0.30,4.3,11.4,138.08,29.96,24.64,36.42,0.90,-26.18,18.41,-52,528,-928,20.9,26.4,0.9,21.3,2.0,-30.2,5.73,2.36,-28.7,28.0
2012-06-21 01:31:00,0.0,1.8793,0.0011,399.08,0.31,5.7,16.1,138.08,29.96,24.64,36.43,0.92,-26.17,18.43,-52,528,-929,20.9,26.0,0.7,21.3,2.0,-30.2,5.73,2.38,-28.7,28.0
2012-06-21 01:32:00,0.0,1.8791,0.0009,399.21,0.28,5.2,13.0,138.08,29.96,24.64,36.43,0.92,-26.17,18.45,-52,529,-928,20.9,25.5,0.4,21.3,2.0,-30.2,5.73,2.37,-28.7,28.0
2012-06-21 01:33:00,0.0,1.8794,0.0009,398.97,0.27,3.3,12.6,138.08,29.96,24.64,36.43,0.93,-26.17,18.47,-52,529,-928,20.9,25.9,0.6,21.3,2.0,-30.2,5.73,2.35,-28.7,28.0
2012-06-21 01:34:00,0.0,1.8793,0.0009,399.01,0.35,6.4,12.6,138.08,29.96,24.64,36.43,0.93,-26.17,18.48,-52,529,-928,20.9,26.4,0.8,21.3,1.9,-30.3,5.73,2.35,-28.7,28.0
2012-06-21 01:35:00,0.0,1.8797,0.0009,399.07,0.27,4.3,10.7,138.08,29.96,24.64,36.43,0.94,-26.17,18.50,-52,529,-928,20.9,26.1,0.7,21.3,1.9,-30.3,5.73,2.38,-28.7,28.0
2012-06-21 01:36:00,0.0,1.8799,0.0009,399.11,0.30,4.9,10.4,138.08,29.95,24.64,36.43,0.95,-26.17,18.51,-52,529,-928,20.9,26.5,0.9,21.3,1.9,-30.4,5.73,2.38,-28.7,28.0
2012-06-21 01:37:00,0.0,1.8800,0.0009,399.28,0.27,4.1,12.8,138.08,29.95,24.64,36.43,0.96,-26.17,18.47,-52,529,-928,20.9,26.3,0.8,21.3,1.9,-30.3,5.73,2.35,-28.7,28.0
2012-06-21 01:38:00,0.0,1.8793,0.0009,399.17,0.29,5.8,13.3,138.08,29.95,24.64,36.43,0.99,-26.17,17.25,-52,529,-928,20.9,25.8,0.6,21.3,1.9,-30.3,5.73,2.35,-28.7,28.0
2012-06-21 01:39:00,0.0,1.8792,0.0010,399.17,0.25,5.0,13.9,138.08,29.95,24.64,36.43,1.04,-26.15,15.03,-52,529,-928,20.9,25.2,0.3,21.3,1.9,-30.3,5.73,2.37,-28.7,28.0
2012-06-21 01:40:00,0.0,1.8792,0.0008,399.46,0.30,9.1,16.6,138.08,29.95,24.64,36.42,1.07,-26.16,12.64,-52,529,-928,20.9,25.4,0.4,21.3,1.9,-30.3,5.73,2.38,-28.7,28.0
2012-06-21 01:41:00,0.0,1.8796,0.0008,399.26,0.25,4.9,13.0,138.08,29.95,24.64,36.43,0.95,-26.16,10.29,-52,529,-928,20.9,25.5,0.4,21.3,1.9,-30.3,5.73,2.36,-28.7,28.0
2012-06-21 01:42:00,0.0,1.8796,0.0009,399.21,0.29,5.9,14.0,138.08,29.95,24.64,36.43,1.00,-26.17,8.01,-53,529,-928,20.9,25.5,0.4,21.3,1.9,-30.3,5.73,2.35,-28.7,28.0
2012-06-21 01:43:00,0.0,1.8791,0.0010,399.31,0.27,6.0,12.5,138.08,29.96,24.64,36.42,1.09,-26.17,5.82,-52,529,-928,20.9,25.2,0.3,21.3,1.9,-30.3,5.73,2.36,-28.7,28.0
2012-06-21 01:44:00,0.0,1.8790,0.0010,399.21,0.28,5.9,11.9,138.08,29.96,24.64,36.43,1.01,-26.17,3.74,-52,529,-928,20.9,25.5,0.4,21.3,1.9,-30.3,5.73,2.38,-28.7,28.0
2012-06-21 01:45:00,0.0,1.8789,0.0010,399.33,0.30,6.3,13.2,138.08,29.96,24.64,36.42,0.96,-26.17,1.76,-52,529,-928,20.9,24.9,0.1,21.4,1.9,-30.3,5.73,2.37,-28.7,28.0
2012-06-21 01:46:00,0.0,1.8784,0.0009,399.02,0.30,4.8,9.9,138.08,29.96,24.64,36.43,1.06,-26.16,-0.11,-52,529,-929,21.0,24.7,0.0,21.4,1.9,-30.3,5.73,2.35,-28.7,28.0
2012-06-21 01:47:00,0.0,1.8790,0.0009,399.06,0.26,4.5,12.1,138.08,29.96,24.64,36.43,1.06,-26.17,-1.87,-52,529,-929,21.0,24.9,0.1,21.4,1.9,-30.3,5.73,2.35,-28.7,28.0
2012-06-21 01:48:00,0.0,1.8787,0.0009,398.99,0.29,5.6,11.3,138.08,29.97,24.64,36.44,0.95,-26.16,-3.22,-52,529,-929,21.0,25.5,0.4,21.4,1.9,-30.3,5.73,2.38,-28.7,28.0
2012-06-21 01:49:00,0.0,1.8785,0.0010,399.09,0.28,2.8,8.6,138.08,29.97,24.64,36.43,1.02,-26.17,-4.80,-53,529,-929,21.0,25.4,0.4,21.4,1.9,-30.3,5.73,2.38,-28.7,28.0
2012-06-21 01:50:00,0.0,1.8776,0.0009,399.04,0.32,4.7,11.8,138.07,29.97,24.64,36.43,1.08,-26.17,-6.31,-53,529,-929,21.0,24.9,0.1,21.4,1.9,-30.4,5.73,2.35,-28.7,28.1
2012-06-21 01:51:00,0.0,1.8777,0.0009,399.09,0.29,5.0,15.0,138.07,29.98,24.64,36.43,0.98,-26.18,-7.72,-53,529,-929,21.0,24.6,-0.0,21.4,1.9,-30.4,5.73,2.34,-28.7,28.1
2012-06-21 01:52:00,0.0,1.8772,0.0008,399.13,0.29,5.2,12.7,138.07,29.98,24.64,36.43,0.97,-26.18,-8.92,-53,529,-929,21.0,24.6,-0.0,21.4,1.9,-30.4,5.73,2.37,-28.7,28.0
2012-06-21 01:53:00,0.0,1.8771,0.0011,399.12,0.28,4.8,11.9,138.07,29.99,24.64,36.43,1.04,-26.19,-10.08,-53,529,-928,21.0,24.4,-0.1,21.4,1.9,-30.4,5.73,2.38,-28.7,28.1
2012-06-21 01:54:00,0.0,1.8772,0.0009,399.05,0.29,1.0,6.0,138.07,29.99,24.64,36.43,1.05,-26.20,-11.21,-53,529,-928,21.0,24.3,-0.2,21.4,1.9,-30.4,5.73,2.36,-28.7,28.1
2012-06-21 01:55:00,0.0,1.8777,0.0009,399.02,0.27,5.0,13.8,138.07,30.00,24.64,36.43,0.96,-26.21,-12.30,-53,529,-928,21.0,24.6,0.0,21.4,1.9,-30.4,5.73,2.35,-28.7,28.0
2012-06-21 01:56:00,0.0,1.8776,0.0010,398.93,0.31,5.8,15.9,138.07,30.00,24.64,36.44,1.00,-26.22,-13.27,-53,529,-928,21.0,25.0,0.2,21.5,1.9,-30.4,5.73,2.36,-28.7,28.0
2012-06-21 01:57:00,0.0,1.8774,0.0010,398.98,0.29,4.1,16.1,138.07,30.01,24.64,36.44,1.05,-26.23,-14.23,-53,529,-928,21.0,24.9,0.2,21.5,1.9,-30.4,5.73,2.38,-28.7,28.1
2012-06-21 01:58:00,0.0,1.8771,0.0010,399.12,0.31,3.3,10.3,138.07,30.01,24.64,36.43,1.02,-26.25,-15.18,-53,529,-928,21.0,24.5,-0.0,21.5,1.9,-30.4,5.73,2.37,-28.7,28.1
2012-06-21 01:59:00,0.0,1.8769,0.0009,398.93,0.30,4.5,13.0,138.07,30.01,24.64,36.44,0.95,-26.26,-16.04,-53,529,-928,21.0,24.7,0.1,21.5,1.9,-30.4,5.73,2.35,-28.6,28.1
2012-06-21 02:00:00,0.0,1.8769,0.0010,399.04,0.30,2.3,10.1,138.07,30.02,24.64,36.43,0.99,-26.27,-16.82,-53,529,-928,21.0,24.5,-0.0,21.5,1.9,-30.4,5.73,2.35,-28.7,28.1
2012-06-21 02:01:00,0.0,1.8769,0.0008,399.01,0.33,1.7,9.5,138.07,30.02,24.64,36.43,1.06,-26.29,-17.54,-53,529,-928,21.1,24.2,-0.2,21.5,1.9,-30.5,5.73,2.37,-28.6,28.1
2012-06-21 02:02:00,0.0,1.8772,0.0008,399.28,0.22,1.7,10.8,138.07,30.03,24.64,36.43,1.01,-26.30,-18.28,-53,529,-928,21.1,23.6,-0.5,21.5,1.9,-30.5,5.73,2.37,-28.6,28.1
2012-06-21 02:03:00,0.0,1.8773,0.0009,399.09,0.30,1.6,7.3,138.07,30.03,24.64,36.44,0.94,-26.32,-19.00,-53,529,-928,21.1,23.7,-0.5,21.5,1.9,-30.5,5.73,2.36,-28.6,28.0
2012-06-21 02:04:00,0.0,1.8769,0.0010,399.08,0.32,4.6,12.0,138.07,30.04,24.64,36.43,1.00,-26.33,-19.66,-53,529,-929,21.1,23.9,-0.4,21.5,1.9,-30.6,5.73,2.34,-28.7,28.1
2012-06-21 02:05:00,0.0,1.8766,0.0007,399.04,0.31,3.2,13.0,138.07,30.04,24.65,36.43,1.06,-26.34,-20.28,-53,529,-929,21.1,24.1,-0.2,21.5,1.9,-30.5,5.73,2.36,-28.6,28.1
2012-06-21 02:06:00,0.0,1.8775,0.0010,398.94,0.34,3.9,10.9,138.07,30.04,24.64,36.43,1.01,-26.36,-20.88,-53,529,-929,21.1,24.6,0.0,21.5,1.9,-30.5,5.73,2.38,-28.6,28.1
2012-06-21 02:07:00,0.0,1.8791,0.0013,399.41,0.32,1.9,9.0,138.07,30.05,24.64,36.43,0.94,-26.38,-21.42,-53,529,-929,21.1,25.0,0.3,21.5,1.9,-30.5,5.73,2.36,-28.6,28.1
2012-06-21 02:08:00,0.0,1.8801,0.0008,399.69,0.28,4.2,13.6,138.07,30.05,24.64,36.43,1.00,-26.39,-21.94,-53,530,-929,21.1,25.8,0.7,21.5,1.9,-30.5,5.73,2.35,-28.6,28.1
2012-06-21 02:09:00,0.0,1.8805,0.0009,399.72,0.37,1.0,6.6,138.07,30.06,24.64,36.43,1.04,-26.40,-22.42,-53,530,-929,21.1,26.4,1.1,21.5,1.9,-30.5,5.73,2.35,-28.6,28.1
2012-06-21 02:10:00,0.0,1.8811,0.0010,400.00,0.33,2.5,8.9,138.07,30.06,24.64,36.42,1.03,-26.41,-22.87,-53,529,-929,21.1,25.9,0.8,21.5,1.9,-30.5,5.73,2.37,-28.6,28.1
2012-06-21 02:11:00,0.0,1.8807,0.0007,399.57,0.36,2.0,7.4,138.07,30.07,24.64,36.43,0.96,-26.43,-23.29,-53,529,-928,21.1,26.2,0.9,21.5,1.8,-30.7,5.73,2.37,-28.6,28.1
2012-06-21 02:12:00,0.0,1.8812,0.0009,399.65,0.27,2.6,8.3,138.07,30.07,24.64,36.43,0.97,-26.44,-23.69,-53,530,-928,21.1,26.3,1.0,21.5,1.8,-30.6,5.73,2.35,-28.6,28.1
2012-06-21 02:13:00,0.0,1.8809,0.0011,399.57,0.32,0.6,4.8,138.07,30.08,24.64,36.43,1.03,-26.44,-24.05,-53,530,-928,21.1,26.6,1.2,21.5,1.8,-30.7,5.73,2.35,-28.6,28.0
2012-06-21 02:14:00,0.0,1.8781,0.0018,399.44,0.32,0.8,4.5,138.07,30.08,24.64,36.43,1.05,-26.45,-24.40,-53,530,-928,21.1,26.6,1.2,21.5,1.8,-30.7,5.73,2.37,-28.6,28.1
2012-06-21 02:15:00,0.0,1.8778,0.0010,399.41,0.33,0.8,7.4,138.07,30.08,24.64,36.43,0.97,-26.47,-24.73,-53,530,-928,21.1,26.0,0.9,21.5,1.8,-30.6,5.73,2.38,-28.6,28.1
2012-06-21 02:16:00,0.0,1.8780,0.0008,399.38,0.33,0.4,6.8,138.07,30.09,24.64,36.43,0.95,-26.48,-25.04,-53,529,-928,21.1,25.9,0.8,21.5,1.9,-30.6,5.73,2.36,-28.6,28.1
2012-06-21 02:17:00,0.0,1.8788,0.0010,399.41,0.28,1.6,8.8,138.07,30.09,24.64,36.43,0.99,-26.49,-25.34,-53,530,-928,21.1,26.0,0.9,21.5,1.8,-30.7,5.73,2.34,-28.6,28.1
2012-06-21 02:18:00,0.0,1.8811,0.0009,399.66,0.28,0.2,3.9,138.07,30.10,24.64,36.43,1.04,-26.50,-25.62,-53,530,-928,21.1,26.5,1.1,21.5,1.8,-30.7,5.73,2.36,-28.6,28.1
2012-06-21 02:19:00,0.0,1.8815,0.0012,399.67,0.26,2.8,9.6,138.07,30.11,24.64,36.43,1.02,-26.51,-25.88,-53,530,-928,21.2,26.9,1.3,21.5,1.8,-30.7,5.73,2.37,-28.6,28.1
2012-06-21 02:20:00,0.0,1.8792,0.0015,399.42,0.36,2.9,11.4,138.07,30.11,24.64,36.43,0.95,-26.52,-26.13,-53,530,-928,21.1,26.8,1.3,21.5,1.8,-30.7,5.73,2.36,-28.6,28.1
2012-06-21 02:21:00,0.0,1.8777,0.0007,399.37,0.30,2.7,8.1,138.07,30.11,24.64,36.44,0.97,-26.53,-26.36,-53,530,-929,21.1,26.6,1.2,21.5,1.8,-30.7,5.73,2.34,-28.6,28.1